Location: Ferchesar
(52.6477°N, 12.4298°E)
Time: 17:33:18
(UTC+01:00)

Tiros 1 - Pass Details

Date: 07 December 2021
Orbit: 629 x 664 km, 48.4° (Epoch: 22 January)

Event Time Altitude Azimuth Distance (km) Brightness Sun altitude
Rises 00:03:39 0° 274° (W) 2,955 - -60.0°
Reaches altitude 10° 00:07:11 10° 247° (WSW) 2,050 - -59.9°
Maximum altitude 00:09:17 13° 220° (SW) 1,865 - -59.9°
Drops below altitude 10° 00:11:23 10° 194° (SSW) 2,055 - -59.9°
Sets 00:14:57 0° 166° (SSE) 2,969 - -59.8°
